Location: Newark
(25.7507°S, 31.4676°E)
Time: 23:55:46
(UTC+00:00)

Hubble Space Telescope - Pass Details

Date: 28 January 2020
Orbit: 536 x 540 km, 28.5° (Epoch: 24 February)

Event Time Altitude Azimuth Distance (km) Brightness Sun altitude
Rises 19:35:09 0° 259° (WSW) 2,693 5.1 -32.6°
Reaches altitude 10° 19:37:27 10° 255° (WSW) 1,800 4.1 -33.0°
Enters shadow 19:38:18 16° 253° (WSW) 1,474 3.5 -33.1°
